When you browse on this site, cookies collect data to enhance your experience and personalize the content and advertising you see.
Visit our Privacy Policy to learn more. By continuing to use the site, you agree to this use of cookies and data.
  • In Hungary
  • List of Countries
  • For 7 days
  • Water Temperature
  • Weather Map
  • News
  • Weather Widgets
  • user-avatar
    Login

    Hourly Weather Centralnyy

    Today, 22 October, Tuesday

    Time Temperature Precipitation Wind Pressure Humidity
    00:00 +12°C° 0 mm 2 mps 759 mmHg 65%
    01:00 +12°C° 0 mm 2 mps 759 mmHg 67%
    02:00 +10°C° 0 mm 2 mps 759 mmHg 69%
    03:00 +10°C° 0 mm 2 mps 759 mmHg 71%
    04:00 +10°C° 0 mm 2 mps 759 mmHg 73%
    05:00 +10°C° 0 mm 2 mps 759 mmHg 74%
    06:00 +10°C° 0 mm 1 mps 759 mmHg 76%
    07:00 +12°C° 0 mm 2 mps 759 mmHg 70%
    08:00 +13°C° 0 mm 2 mps 759 mmHg 65%
    09:00 +14°C° 0 mm 2 mps 759 mmHg 60%
    10:00 +16°C° 0 mm 2 mps 759 mmHg 54%
    11:00 +17°C° 0 mm 2 mps 759 mmHg 47%
    12:00 +18°C° 0 mm 2 mps 759 mmHg 41%
    13:00 +19°C° 0 mm 2 mps 759 mmHg 39%
    14:00 +20°C° 0 mm 1 mps 759 mmHg 37%
    15:00 +21°C° 0 mm 1 mps 758 mmHg 35%
    16:00 +19°C° 0 mm 1 mps 758 mmHg 39%
    17:00 +18°C° 0 mm 1 mps 758 mmHg 44%
    18:00 +15°C° 0 mm 1 mps 758 mmHg 48%
    19:00 +15°C° 0 mm 1 mps 758 mmHg 49%
    20:00 +14°C° 0 mm 1 mps 758 mmHg 51%
    21:00 +14°C° 0 mm 1 mps 758 mmHg 53%
    22:00 +13°C° 0 mm 1 mps 758 mmHg 54%
    23:00 +13°C° 0 mm 1 mps 758 mmHg 56%

    Tomorrow, 23 October, Wednesday

    Time Temperature Precipitation Wind Pressure Humidity
    00:00 +13°C° 0 mm 1 mps 758 mmHg 57%
    01:00 +13°C° 0 mm 1 mps 758 mmHg 58%
    02:00 +12°C° 0 mm 1 mps 758 mmHg 59%
    03:00 +12°C° 0 mm 1 mps 758 mmHg 60%
    04:00 +12°C° 0 mm 1 mps 758 mmHg 61%
    05:00 +11°C° 0 mm 0 mps 757 mmHg 62%
    06:00 +11°C° 0 mm 0 mps 757 mmHg 63%
    07:00 +13°C° 0 mm 1 mps 758 mmHg 60%
    08:00 +14°C° 0 mm 1 mps 758 mmHg 56%
    09:00 +15°C° 0 mm 1 mps 758 mmHg 53%
    10:00 +18°C° 0 mm 1 mps 758 mmHg 48%
    11:00 +19°C° 0 mm 1 mps 758 mmHg 44%
    12:00 +21°C° 0 mm 1 mps 758 mmHg 40%
    13:00 +21°C° 0 mm 1 mps 758 mmHg 40%
    14:00 +19°C° 0 mm 0 mps 757 mmHg 39%
    15:00 +19°C° 0 mm 0 mps 757 mmHg 39%
    16:00 +18°C° 0 mm 0 mps 757 mmHg 43%
    17:00 +18°C° 0 mm 1 mps 757 mmHg 47%
    18:00 +16°C° 0 mm 1 mps 757 mmHg 52%
    19:00 +16°C° 0 mm 1 mps 757 mmHg 53%
    20:00 +15°C° 0 mm 1 mps 757 mmHg 54%
    21:00 +15°C° 0 mm 2 mps 757 mmHg 55%
    22:00 +14°C° 0 mm 2 mps 757 mmHg 56%
    23:00 +14°C° 0 mm 2 mps 757 mmHg 56%

    Day after tomorrow, 24 October, Thursday

    Time Temperature Precipitation Wind Pressure Humidity
    00:00 +13°C° 0 mm 2 mps 757 mmHg 56%
    01:00 +13°C° 0 mm 2 mps 757 mmHg 56%
    02:00 +13°C° 0 mm 1 mps 757 mmHg 56%
    03:00 +12°C° 0 mm 1 mps 757 mmHg 56%
    04:00 +12°C° 0 mm 1 mps 757 mmHg 57%
    05:00 +12°C° 0 mm 1 mps 757 mmHg 57%
    06:00 +11°C° 0 mm 1 mps 757 mmHg 58%
    07:00 +12°C° 0 mm 2 mps 757 mmHg 55%
    08:00 +14°C° 0 mm 2 mps 757 mmHg 52%
    09:00 +15°C° 0 mm 2 mps 757 mmHg 49%
    10:00 +16°C° 0 mm 3 mps 757 mmHg 45%
    11:00 +18°C° 0 mm 3 mps 757 mmHg 40%
    12:00 +20°C° 0 mm 3 mps 757 mmHg 35%
    13:00 +20°C° 0 mm 3 mps 757 mmHg 35%
    14:00 +20°C° 0 mm 3 mps 756 mmHg 34%
    15:00 +20°C° 0 mm 3 mps 756 mmHg 34%
    16:00 +19°C° 0 mm 3 mps 756 mmHg 38%
    17:00 +17°C° 0 mm 2 mps 756 mmHg 42%
    18:00 +16°C° 0 mm 2 mps 756 mmHg 47%
    19:00 +15°C° 0 mm 2 mps 756 mmHg 48%
    20:00 +13°C° 0 mm 3 mps 756 mmHg 50%
    21:00 +12°C° 0 mm 3 mps 756 mmHg 51%
    22:00 +12°C° 0 mm 3 mps 756 mmHg 54%
    23:00 +11°C° 0 mm 3 mps 756 mmHg 57%

    25 October, Friday

    Time Temperature Precipitation Wind Pressure Humidity
    00:00 +11°C° 0 mm 3 mps 756 mmHg 60%
    01:00 +11°C° 0 mm 3 mps 756 mmHg 61%
    02:00 +11°C° 0 mm 3 mps 756 mmHg 62%
    03:00 +10°C° 0 mm 3 mps 756 mmHg 63%
    04:00 +10°C° 0 mm 3 mps 755 mmHg 64%
    05:00 +10°C° 0 mm 3 mps 755 mmHg 64%
    06:00 +10°C° 0 mm 3 mps 755 mmHg 64%
    07:00 +11°C° 0 mm 3 mps 756 mmHg 61%
    08:00 +12°C° 0 mm 3 mps 756 mmHg 57%
    09:00 +13°C° 0 mm 3 mps 756 mmHg 54%
    10:00 +14°C° 0 mm 4 mps 756 mmHg 47%
    11:00 +17°C° 0 mm 4 mps 756 mmHg 41%
    12:00 +19°C° 0 mm 4 mps 756 mmHg 35%
    13:00 +19°C° 0 mm 4 mps 756 mmHg 34%
    14:00 +19°C° 0 mm 4 mps 756 mmHg 34%
    15:00 +19°C° 0 mm 4 mps 756 mmHg 33%
    16:00 +18°C° 0 mm 4 mps 756 mmHg 38%
    17:00 +15°C° 0 mm 4 mps 756 mmHg 43%
    18:00 +13°C° 0 mm 3 mps 756 mmHg 47%
    19:00 +13°C° 0 mm 3 mps 756 mmHg 49%
    20:00 +12°C° 0 mm 3 mps 757 mmHg 51%
    21:00 +12°C° 0 mm 3 mps 757 mmHg 53%
    22:00 +11°C° 0 mm 3 mps 757 mmHg 54%
    23:00 +11°C° 0 mm 3 mps 757 mmHg 54%

    26 October, Saturday

    Time Temperature Precipitation Wind Pressure Humidity
    00:00 +11°C° 0 mm 3 mps 757 mmHg 55%
    01:00 +10°C° 0 mm 3 mps 757 mmHg 55%
    02:00 +10°C° 0 mm 3 mps 757 mmHg 56%
    03:00 +10°C° 0 mm 3 mps 757 mmHg 56%
    04:00 +10°C° 0 mm 3 mps 757 mmHg 57%
    05:00 +9°C° 0 mm 3 mps 758 mmHg 58%
    06:00 +9°C° 0 mm 3 mps 758 mmHg 59%
    07:00 +10°C° 0 mm 3 mps 758 mmHg 55%
    08:00 +12°C° 0 mm 4 mps 758 mmHg 51%
    09:00 +13°C° 0 mm 4 mps 758 mmHg 47%
    10:00 +15°C° 0 mm 4 mps 759 mmHg 42%
    11:00 +17°C° 0 mm 5 mps 759 mmHg 37%
    12:00 +19°C° 0 mm 5 mps 759 mmHg 32%
    13:00 +20°C° 0 mm 5 mps 758 mmHg 31%
    14:00 +20°C° 0 mm 5 mps 758 mmHg 31%
    15:00 +20°C° 0 mm 5 mps 758 mmHg 30%
    16:00 +19°C° 0 mm 4 mps 758 mmHg 35%
    17:00 +17°C° 0 mm 4 mps 757 mmHg 40%
    18:00 +14°C° 0 mm 4 mps 757 mmHg 46%
    19:00 +14°C° 0 mm 4 mps 757 mmHg 49%
    20:00 +13°C° 0 mm 4 mps 757 mmHg 53%
    21:00 +12°C° 0 mm 3 mps 757 mmHg 56%
    22:00 +12°C° 0 mm 3 mps 757 mmHg 57%
    23:00 +12°C° 0 mm 3 mps 757 mmHg 58%

    27 October, Sunday

    Time Temperature Precipitation Wind Pressure Humidity
    00:00 +11°C° 0 mm 3 mps 757 mmHg 58%
    01:00 +11°C° 0 mm 3 mps 757 mmHg 61%
    02:00 +11°C° 0 mm 3 mps 756 mmHg 64%
    03:00 +10°C° 0 mm 3 mps 756 mmHg 67%
    04:00 +10°C° 0 mm 3 mps 756 mmHg 69%
    05:00 +10°C° 0 mm 3 mps 756 mmHg 71%
    06:00 +10°C° 0 mm 3 mps 756 mmHg 73%
    07:00 +11°C° 0 mm 3 mps 756 mmHg 67%
    08:00 +12°C° 0 mm 4 mps 756 mmHg 62%
    09:00 +13°C° 0 mm 4 mps 756 mmHg 57%
    10:00 +15°C° 0 mm 4 mps 756 mmHg 50%
    11:00 +17°C° 0 mm 5 mps 755 mmHg 44%
    12:00 +20°C° 0 mm 6 mps 755 mmHg 38%
    13:00 +20°C° 0 mm 6 mps 755 mmHg 37%
    14:00 +20°C° 0 mm 6 mps 754 mmHg 35%
    15:00 +21°C° 0 mm 6 mps 754 mmHg 34%
    16:00 +19°C° 0 mm 5 mps 753 mmHg 38%
    17:00 +17°C° 0 mm 4 mps 753 mmHg 42%
    18:00 +15°C° 0 mm 2 mps 753 mmHg 45%
    19:00 +14°C° 0 mm 3 mps 753 mmHg 47%
    20:00 +13°C° 0 mm 3 mps 752 mmHg 49%
    21:00 +13°C° 0 mm 3 mps 752 mmHg 50%
    22:00 +12°C° 0 mm 3 mps 752 mmHg 53%
    23:00 +12°C° 0 mm 3 mps 752 mmHg 55%

    28 October, Monday

    Time Temperature Precipitation Wind Pressure Humidity
    00:00 +11°C° 0 mm 3 mps 751 mmHg 58%
    01:00 +12°C° 0 mm 2 mps 751 mmHg 63%
    02:00 +10°C° 0 mm 2 mps 751 mmHg 68%
    03:00 +10°C° 0 mm 2 mps 750 mmHg 73%
    04:00 +9°C° 0 mm 2 mps 750 mmHg 76%
    05:00 +9°C° 0 mm 2 mps 750 mmHg 80%
    06:00 +9°C° 0 mm 2 mps 750 mmHg 83%
    07:00 +10°C° 0 mm 2 mps 750 mmHg 78%
    08:00 +12°C° 0 mm 2 mps 750 mmHg 73%
    09:00 +13°C° 0 mm 2 mps 751 mmHg 68%
    10:00 +14°C° 0 mm 3 mps 751 mmHg 61%
    11:00 +17°C° 0 mm 3 mps 750 mmHg 54%
    12:00 +18°C° 0 mm 3 mps 750 mmHg 48%
    13:00 +19°C° 0 mm 4 mps 750 mmHg 47%
    14:00 +19°C° 0 mm 4 mps 750 mmHg 46%
    15:00 +19°C° 0 mm 4 mps 750 mmHg 45%
    16:00 +18°C° 0 mm 3 mps 750 mmHg 48%
    17:00 +17°C° 0 mm 3 mps 750 mmHg 52%
    18:00 +15°C° 0 mm 2 mps 750 mmHg 55%
    19:00 +14°C° 0 mm 3 mps 750 mmHg 55%
    20:00 +14°C° 0 mm 3 mps 750 mmHg 56%
    21:00 +13°C° 0 mm 3 mps 750 mmHg 56%
    22:00 +13°C° 0 mm 3 mps 750 mmHg 58%
    23:00 +13°C° 0 mm 3 mps 750 mmHg 59%
    Show more